Wind_Speed
9 11 11 13 13 14 14 15 16 18 20 22 23 22 22 22 22 22 23 24 25 25 25 25 26 27 27 27 28 29 29 29 30 30 31 32 32 32 33 33 34 34 34
9 11 12 13 14 14 15 16 16 17 19 21 22 22 23 24 25 25 25 26 27 28 29 29 30 30 30 31 32 32 33 33 33 34 34 34 35 35 36 36 36 37 37
10 11 13 12 13 13 15 16 16 16 17 19 21 23 25 27 27 27 27 28 29 29 30 31 32 33 34 34 35 35 36 37 37 37 38 38 38 39 39 40 40 40 41
12 13 14 14 14 14 14 15 16 16 16 17 19 22 25 27 29 29 29 29 30 31 32 32 34 35 36 37 38 39 40 41 41 41 41 42 42 43 43 44 45 45 46
15 15 15 16 16 16 16 16 16 16 16 16 18 20 22 25 27 28 29 30 32 33 33 34 36 37 38 39 40 42 42 43 44 45 46 46 47 48 49 49 51 51 52
18 18 18 18 19 18 18 17 17 17 16 16 17 18 20 23 26 28 28 30 31 32 32 34 36 37 39 40 42 43 44 45 47 48 49 51 52 54 55 56 57 58 58
22 22 21 20 20 19 19 19 19 17 18 18 18 19 20 21 23 25 27 29 30 31 32 34 36 37 39 42 44 45 47 48 50 51 53 55 57 59 60 62 63 64 65
25 25 25 23 22 22 22 22 21 20 20 20 20 21 21 22 23 25 26 28 30 32 34 36 38 40 42 44 46 48 50 52 54 56 58 61 63 65 67 68 70 71 72
28 27 27 26 24 25 25 24 24 24 24 24 24 24 25 25 27 28 28 30 33 35 37 39 41 43 45 47 49 51 54 56 59 61 63 66 68 70 72 73 75 76 77
30 29 29 28 28 28 28 27 27 27 27 28 28 29 30 30 31 31 33 35 37 39 41 43 46 48 50 52 54 57 59 61 64 67 69 71 73 75 76 78 79 80 81
32 32 31 30 30 30 29 30 30 30 31 32 32 33 34 35 35 36 38 40 42 44 46 49 51 53 55 58 60 63 65 67 70 72 74 76 77 77 78 79 80 81 81
33 33 32 32 32 31 32 32 33 34 35 36 37 38 39 39 40 42 43 45 47 49 52 54 56 58 61 63 66 68 70 72 74 75 77 78 78 79 79 79 80 80 80
34 34 34 34 34 34 35 35 36 37 38 40 41 42 43 44 45 47 48 49 51 54 56 59 61 63 65 67 69 71 73 74 75 76 77 77 78 78 77 77 76 76 75
35 35 35 36 37 37 38 39 40 41 42 44 45 46 48 49 49 51 52 53 55 57 59 61 64 66 67 69 70 72 73 75 75 75 75 75 74 73 73 73 72 72 71
37 38 39 40 40 40 41 43 44 45 46 48 49 50 51 52 53 54 55 56 57 58 60 62 64 66 67 69 70 71 72 72 72 72 71 71 71 70 70 69 68 67 66
41 42 43 43 44 44 45 47 48 50 51 51 52 53 54 55 56 57 57 58 59 60 61 62 64 65 66 67 68 68 68 68 68 68 68 68 67 65 63 62 61 59 58
45 46 46 47 48 49 50 52 53 54 54 55 56 56 56 57 58 58 59 59 60 61 61 62 63 64 65 65 65 66 66 65 65 64 63 61 59 57 56 54 53 52 50
49 50 51 52 53 55 56 56 56 57 57 58 58 58 58 58 59 59 59 60 60 61 61 60 60 61 62 63 63 62 61 61 59 57 56 54 53 51 48 47 46 46 45
54 55 57 58 58 59 59 59 59 60 60 59 59 58 58 59 59 59 60 60 59 59 59 58 58 59 59 59 58 56 55 53 52 51 49 47 45 44 43 42 42 42 42
58 59 61 61 61 61 60 60 60 59 58 58 58 59 59 59 59 59 58 58 57 57 56 56 56 55 55 54 52 50 47 46 45 44 44 42 41 40 39 38 38 37 37
60 61 61 60 59 59 58 58 58 58 57 58 58 59 59 58 57 57 56 56 55 54 54 53 52 50 49 47 45 44 42 40 39 39 38 37 37 36 36 35 35 34 34
56 57 57 57 57 57 56 56 57 57 57 57 57 57 56 56 55 55 54 53 52 51 50 48 46 44 42 40 38 36 35 34 33 34 33 33 33 33 33 33 33 33 32
52 53 53 54 55 55 56 56 56 56 55 55 54 54 54 54 53 51 50 49 48 47 44 42 39 37 34 32 31 30 30 30 30 29 28 28 30 30 31 31 31 31 30
49 50 51 51 52 53 54 53 53 53 53 52 52 51 50 49 47 45 44 44 43 41 38 35 31 29 27 26 26 25 24 25 26 25 24 24 26 27 29 30 29 27 27
47 48 49 50 50 51 51 51 51 50 49 49 47 45 43 41 40 39 38 36 35 33 31 27 24 23 23 22 22 21 22 22 23 23 24 24 24 25 26 27 25 24 23
45 46 46 46 47 47 47 47 46 45 44 42 40 38 37 35 34 32 29 27 25 23 21 20 20 20 19 19 19 19 20 20 20 20 21 21 22 22 22 24 23 22 21
Wind_Direction
357 355 353 347 341 333 327 320 315 306 297 291 284 282 281 279 277 274 272 272 273 272 272 271 271 270 271 271 271 271 271 271 270 270 270 270 271 271 271 270 270 269 269
347 350 348 344 342 340 337 331 323 314 305 296 286 281 279 277 277 276 273 272 272 272 273 273 272 271 271 272 271 270 270 271 271 271 270 271 271 271 271 271 270 270 269
333 337 339 340 337 335 334 330 326 319 308 299 289 282 279 277 277 276 274 273 274 274 274 274 273 274 274 273 272 271 270 270 270 270 271 272 272 272 272 272 271 270 270
317 325 332 331 328 325 325 328 326 320 311 301 289 284 281 277 278 278 275 274 274 274 273 273 274 275 275 274 274 273 272 271 270 271 271 272 272 273 272 272 272 271 271
306 314 321 323 322 323 324 324 325 320 313 305 294 286 280 279 279 279 278 275 275 274 273 275 275 275 275 275 275 274 273 272 272 272 273 273 273 273 273 273 273 273 273
297 304 311 315 314 316 319 318 320 317 315 311 304 295 288 284 281 280 280 278 277 276 275 275 275 275 276 276 275 275 274 273 273 273 274 274 274 274 274 274 274 274 274
296 299 304 306 307 309 312 313 312 311 311 310 308 302 296 292 288 284 283 280 279 278 278 277 276 276 276 276 274 274 273 273 273 274 274 274 274 274 274 274 275 275 275
296 296 297 300 301 302 304 305 303 303 303 304 305 304 300 295 290 287 285 283 281 281 280 279 279 278 277 276 275 274 274 274 274 273 273 274 274 274 274 274 275 274 274
292 293 296 297 297 298 299 298 295 296 296 297 298 297 298 296 292 289 287 286 285 284 282 281 281 280 279 278 277 276 275 275 274 274 274 273 274 274 274 274 275 275 274
290 292 295 296 297 296 296 294 291 291 292 293 294 294 294 294 292 290 289 288 286 285 284 283 282 282 282 281 280 279 278 277 276 275 275 274 274 275 275 275 275 275 275
291 292 293 294 294 294 293 292 291 290 290 291 291 292 292 292 291 289 288 288 287 285 284 283 283 282 281 281 281 280 279 279 278 277 277 276 276 277 277 277 277 276 276
290 289 290 291 291 292 291 290 290 289 290 290 290 290 290 290 290 288 287 287 286 285 285 284 283 282 282 282 281 281 280 280 280 279 280 280 279 279 279 279 279 278 278
287 287 288 289 291 292 291 290 289 289 290 290 289 289 289 288 288 287 286 286 285 285 285 284 283 283 283 283 283 282 282 282 282 282 282 282 282 282 282 281 281 280 279
285 287 288 290 292 292 291 290 291 291 290 289 289 288 288 288 287 287 286 286 286 286 285 285 285 285 285 285 285 285 285 285 285 285 285 285 285 285 284 283 283 281 280
286 288 290 292 292 291 291 291 291 291 290 289 289 289 288 288 288 289 288 287 286 286 286 287 286 286 286 286 286 287 287 288 288 288 288 287 286 286 285 284 283 281 280
287 289 291 291 291 291 291 291 290 290 291 290 290 289 289 289 289 290 290 289 289 289 288 288 287 287 288 288 288 289 289 289 289 289 288 288 287 287 286 285 284 283 281
289 289 290 290 290 290 290 290 290 291 291 290 290 290 290 290 290 291 292 292 291 291 290 290 290 290 290 290 291 291 291 291 290 290 290 289 288 288 287 286 285 283 281
287 288 288 288 289 289 290 290 290 290 290 290 290 291 291 292 292 292 292 292 292 292 292 292 292 292 292 292 293 293 292 292 292 292 291 290 290 288 287 285 284 283 281
286 286 287 287 288 288 289 290 290 290 290 290 291 292 292 292 292 293 292 293 293 293 294 294 293 293 294 294 294 294 294 294 294 293 292 291 290 289 287 286 285 283 281
284 285 285 286 287 288 288 289 289 289 289 290 291 292 292 292 292 292 293 293 294 294 295 295 295 295 295 296 296 297 297 297 296 295 294 293 292 291 289 288 286 284 283
282 284 285 286 286 287 287 288 288 289 290 290 291 291 291 291 292 292 293 293 294 294 295 296 296 297 297 298 299 300 300 299 298 297 296 295 294 293 292 291 289 287 284
282 283 285 287 287 287 288 288 289 290 290 290 290 290 290 291 291 292 292 293 294 294 295 296 297 298 299 301 302 302 303 302 301 299 298 297 297 296 295 294 292 290 287
286 287 288 289 289 289 289 289 289 289 288 288 288 289 290 290 291 292 292 292 294 295 296 298 299 301 302 304 305 306 307 309 309 307 304 302 301 300 299 297 296 293 289
288 289 289 288 288 288 288 287 287 287 287 287 288 289 290 290 290 290 291 293 294 296 299 301 303 306 308 310 313 315 316 317 318 317 316 313 310 308 306 304 302 298 292
290 289 289 289 288 287 287 287 287 288 288 289 290 291 290 290 290 290 291 292 295 298 301 304 308 312 316 320 322 324 325 326 326 324 325 324 321 319 317 314 313 309 301
290 290 290 289 289 289 289 289 289 289 290 290 290 290 290 290 290 291 291 292 296 299 305 312 318 323 327 330 333 335 336 336 336 334 333 332 332 331 329 326 325 321 313
Height
5893 5892 5890 5889 5886 5884 5881 5879 5877 5874 5872 5870 5870 5870 5871 5871 5870 5870 5869 5868 5867 5866 5865 5865 5865 5864 5864 5863 5862 5861 5860 5859 5858 5857 5856 5855 5854 5854 5853 5852 5852 5852 5851
5891 5890 5888 5886 5883 5880 5877 5875 5872 5870 5868 5865 5865 5865 5865 5865 5865 5864 5863 5863 5862 5861 5860 5859 5858 5857 5857 5856 5855 5854 5853 5852 5851 5850 5849 5848 5847 5846 5845 5844 5844 5843 5843
5888 5886 5884 5882 5880 5877 5875 5872 5869 5866 5864 5862 5860 5860 5859 5858 5858 5857 5857 5856 5855 5854 5853 5852 5851 5850 5849 5848 5847 5846 5845 5844 5843 5841 5840 5839 5838 5837 5836 5835 5834 5834 5833
5883 5882 5880 5878 5876 5873 5871 5869 5866 5863 5860 5858 5856 5855 5853 5852 5851 5850 5849 5849 5848 5847 5846 5845 5843 5842 5841 5839 5838 5837 5836 5835 5833 5832 5831 5830 5829 5827 5826 5825 5824 5823 5822
5878 5876 5875 5873 5871 5869 5866 5864 5862 5859 5857 5855 5852 5850 5848 5847 5845 5843 5842 5841 5841 5839 5838 5837 5836 5834 5832 5831 5829 5828 5826 5825 5823 5822 5821 5819 5818 5816 5815 5813 5812 5811 5810
5872 5870 5869 5868 5866 5864 5861 5859 5857 5855 5853 5851 5848 5846 5844 5842 5840 5838 5836 5834 5833 5832 5831 5829 5827 5826 5824 5822 5820 5818 5816 5814 5813 5811 5809 5807 5806 5804 5802 5800 5798 5797 5797
5865 5864 5864 5862 5860 5859 5857 5855 5853 5851 5849 5847 5845 5842 5840 5837 5835 5832 5830 5827 5826 5824 5822 5820 5818 5816 5814 5812 5810 5807 5805 5803 5801 5799 5797 5794 5792 5789 5787 5785 5784 5782 5781
5859 5859 5857 5856 5855 5853 5852 5850 5848 5846 5844 5842 5840 5838 5835 5833 5830 5827 5824 5821 5819 5817 5814 5811 5809 5807 5804 5801 5799 5796 5794 5791 5789 5786 5783 5780 5777 5774 5771 5769 5767 5765 5763
5852 5852 5851 5850 5848 5847 5845 5844 5842 5841 5839 5837 5835 5833 5830 5827 5824 5821 5818 5815 5812 5809 5805 5802 5799 5796 5793 5790 5787 5784 5781 5778 5774 5771 5767 5764 5761 5758 5755 5751 5749 5746 5744
5845 5844 5843 5842 5841 5840 5839 5837 5836 5834 5832 5830 5828 5825 5823 5820 5817 5814 5810 5807 5803 5799 5796 5792 5788 5785 5781 5777 5773 5770 5766 5763 5759 5755 5751 5747 5743 5739 5736 5732 5729 5726 5724
5838 5837 5836 5835 5834 5833 5831 5829 5828 5826 5824 5822 5820 5817 5814 5812 5809 5805 5802 5798 5793 5789 5784 5780 5776 5772 5768 5763 5759 5754 5750 5745 5741 5736 5731 5727 5723 5719 5715 5711 5708 5704 5701
5830 5829 5828 5827 5826 5825 5823 5821 5819 5818 5816 5813 5810 5807 5805 5802 5799 5795 5791 5787 5782 5777 5772 5766 5762 5758 5753 5748 5743 5737 5732 5727 5722 5717 5711 5706 5702 5697 5693 5689 5686 5682 5679
5822 5821 5820 5819 5817 5816 5814 5812 5810 5808 5805 5803 5800 5797 5793 5790 5787 5783 5779 5775 5770 5765 5759 5752 5746 5742 5737 5731 5725 5719 5713 5707 5702 5696 5691 5686 5681 5676 5671 5667 5663 5660 5657
5814 5812 5811 5809 5808 5806 5804 5802 5799 5797 5794 5791 5788 5784 5781 5777 5774 5770 5766 5761 5756 5751 5745 5738 5731 5724 5719 5713 5706 5700 5694 5688 5682 5676 5670 5665 5660 5655 5650 5646 5642 5638 5635
5805 5803 5801 5800 5797 5795 5793 5790 5788 5785 5782 5778 5775 5771 5767 5763 5759 5755 5750 5746 5742 5737 5731 5723 5715 5707 5700 5694 5687 5681 5675 5668 5662 5656 5650 5645 5639 5634 5630 5625 5621 5617 5614
5795 5793 5791 5789 5786 5784 5781 5778 5775 5771 5768 5764 5761 5757 5753 5748 5744 5739 5734 5729 5725 5720 5715 5708 5699 5691 5683 5676 5670 5663 5657 5650 5644 5637 5631 5626 5620 5615 5610 5606 5602 5598 5595
5785 5782 5780 5777 5774 5771 5768 5765 5761 5758 5754 5750 5746 5742 5738 5733 5728 5723 5718 5712 5707 5702 5697 5691 5682 5674 5667 5660 5653 5646 5639 5632 5626 5619 5613 5607 5602 5598 5593 5589 5585 5581 5578
5773 5771 5768 5764 5761 5757 5754 5750 5747 5743 5739 5735 5731 5727 5723 5718 5712 5707 5702 5696 5690 5684 5680 5675 5666 5658 5650 5644 5638 5630 5623 5616 5609 5603 5597 5592 5587 5582 5578 5574 5570 5567 5564
5761 5758 5755 5751 5747 5743 5740 5736 5733 5729 5725 5720 5716 5711 5707 5702 5696 5691 5686 5680 5674 5668 5663 5658 5652 5643 5636 5629 5623 5616 5608 5601 5595 5589 5583 5578 5573 5569 5565 5561 5557 5554 5551
5748 5745 5741 5737 5733 5729 5725 5721 5718 5713 5709 5705 5700 5696 5691 5686 5681 5675 5670 5665 5659 5654 5648 5642 5637 5630 5622 5615 5609 5603 5596 5589 5582 5576 5570 5565 5561 5557 5553 5549 5545 5542 5539
5735 5731 5726 5722 5718 5714 5710 5706 5702 5698 5693 5689 5684 5680 5675 5670 5665 5660 5655 5650 5645 5640 5634 5629 5623 5617 5610 5603 5597 5591 5585 5579 5573 5566 5560 5555 5551 5546 5542 5538 5534 5531 5528
5721 5717 5713 5708 5704 5700 5695 5691 5686 5682 5677 5673 5668 5664 5659 5655 5650 5646 5641 5636 5632 5628 5623 5617 5611 5605 5600 5593 5587 5581 5575 5570 5564 5558 5552 5547 5542 5537 5532 5528 5524 5520 5517
5707 5703 5698 5694 5689 5685 5680 5675 5671 5666 5662 5657 5653 5649 5644 5640 5636 5632 5627 5623 5619 5615 5611 5607 5602 5596 5591 5585 5580 5574 5568 5562 5556 5550 5545 5540 5534 5529 5524 5519 5515 5511 5508
5693 5688 5683 5678 5673 5669 5664 5660 5655 5651 5646 5642 5638 5634 5630 5626 5623 5620 5616 5612 5609 5605 5601 5597 5593 5589 5584 5578 5573 5567 5562 5556 5550 5543 5539 5534 5528 5523 5517 5511 5506 5503 5499
5679 5674 5669 5664 5658 5653 5649 5644 5640 5636 5632 5628 5625 5621 5618 5614 5611 5609 5606 5603 5600 5597 5593 5590 5586 5582 5578 5573 5567 5562 5557 5552 5546 5540 5534 5529 5524 5518 5511 5505 5500 5495 5491
5665 5660 5655 5650 5644 5639 5634 5630 5626 5622 5618 5615 5612 5610 5607 5604 5602 5600 5598 5596 5594 5591 5588 5585 5581 5577 5573 5568 5564 5559 5554 5549 5543 5538 5532 5526 5520 5514 5508 5501 5495 5489 5485